Location: Usti nad Labem
(50.6670°N, 14.0330°E)
Time: 23:02:10
(UTC+01:00)

ISS - Pass Details

Date: 02 December 2023
Orbit: 415 x 423 km, 51.6° (Epoch: 24 February)

Event Time Altitude Azimuth Distance (km) Brightness Sun altitude
Rises 17:19:31 0° 286° (WNW) 2,411 1.1 -11.7°
Reaches altitude 10° 17:21:39 10° 282° (WNW) 1,546 0.1 -12.0°
Maximum altitude 17:25:04 56° 203° (SSW) 525 -3.1 -12.6°
Drops below altitude 10° 17:28:30 10° 125° (SE) 1,554 -1.2 -13.1°
Enters shadow 17:28:32 10° 124° (SE) 1,572 -1.2 -13.1°
